Year,Month,Day,Hour,Minute,Value (Times are PST for temperature in C)
2017,08,22,00,00,18.30
2017,08,22,00,01,18.30
2017,08,22,00,02,18.30
2017,08,22,00,03,18.30
2017,08,22,00,04,18.30
2017,08,22,00,05,18.30
2017,08,22,00,06,18.30
2017,08,22,00,07,18.30
2017,08,22,00,08,18.30
2017,08,22,00,09,18.30
2017,08,22,00,10,18.20
2017,08,22,00,11,18.20
2017,08,22,00,12,18.20
2017,08,22,00,13,18.20
2017,08,22,00,14,18.20
2017,08,22,00,15,18.20
2017,08,22,00,16,18.20
2017,08,22,00,17,18.20
2017,08,22,00,18,18.10
2017,08,22,00,19,18.10
2017,08,22,00,20,18.10
2017,08,22,00,21,18.10
2017,08,22,00,22,18.10
2017,08,22,00,23,18.10
2017,08,22,00,24,18.10
2017,08,22,00,25,18.00
2017,08,22,00,26,18.00
2017,08,22,00,27,18.00
2017,08,22,00,28,18.00
2017,08,22,00,29,18.00
2017,08,22,00,30,18.00
2017,08,22,00,31,18.00
2017,08,22,00,32,18.00
2017,08,22,00,33,18.00
2017,08,22,00,34,18.10
2017,08,22,00,35,18.10
2017,08,22,00,36,18.10
2017,08,22,00,37,18.10
2017,08,22,00,38,18.10
2017,08,22,00,39,18.20
2017,08,22,00,40,18.20
2017,08,22,00,41,18.20
2017,08,22,00,42,18.20
2017,08,22,00,43,18.20
2017,08,22,00,44,18.20
2017,08,22,00,45,18.20
2017,08,22,00,46,18.20
2017,08,22,00,47,18.20
2017,08,22,00,48,18.30
2017,08,22,00,49,18.30
2017,08,22,00,50,18.30
2017,08,22,00,51,18.40
2017,08,22,00,52,18.40
2017,08,22,00,53,18.50
2017,08,22,00,54,18.50
2017,08,22,00,55,18.50
2017,08,22,00,56,18.60
2017,08,22,00,57,18.60
2017,08,22,00,58,18.60
2017,08,22,00,59,18.70
2017,08,22,01,00,18.70
2017,08,22,01,01,18.70
2017,08,22,01,02,18.70
2017,08,22,01,03,18.70
2017,08,22,01,04,18.70
2017,08,22,01,05,18.70
2017,08,22,01,06,18.70
2017,08,22,01,07,18.60
2017,08,22,01,08,18.60
2017,08,22,01,09,18.60
2017,08,22,01,10,18.60
2017,08,22,01,11,18.50
2017,08,22,01,12,18.50
2017,08,22,01,13,18.50
2017,08,22,01,14,18.60
2017,08,22,01,15,18.60
2017,08,22,01,16,18.60
2017,08,22,01,17,18.60
2017,08,22,01,18,18.60
2017,08,22,01,19,18.50
2017,08,22,01,20,18.50
2017,08,22,01,21,18.50
2017,08,22,01,22,18.50
2017,08,22,01,23,18.50
2017,08,22,01,24,18.50
2017,08,22,01,25,18.50
2017,08,22,01,26,18.50
2017,08,22,01,27,18.50
2017,08,22,01,28,18.50
2017,08,22,01,29,18.40
2017,08,22,01,30,18.40
2017,08,22,01,31,18.40
2017,08,22,01,32,18.40
2017,08,22,01,33,18.40
2017,08,22,01,34,18.30
2017,08,22,01,35,18.30
2017,08,22,01,36,18.30
2017,08,22,01,37,18.30
2017,08,22,01,38,18.30
2017,08,22,01,39,18.30
2017,08,22,01,40,18.30
2017,08,22,01,41,18.30
2017,08,22,01,42,18.30
2017,08,22,01,43,18.30
2017,08,22,01,44,18.30
2017,08,22,01,45,18.30
2017,08,22,01,46,18.30
2017,08,22,01,47,18.30
2017,08,22,01,48,18.30
2017,08,22,01,49,18.30
2017,08,22,01,50,18.30
2017,08,22,01,51,18.40
2017,08,22,01,52,18.40
2017,08,22,01,53,18.40
2017,08,22,01,54,18.40
2017,08,22,01,55,18.40
2017,08,22,01,56,18.50
2017,08,22,01,57,18.50
2017,08,22,01,58,18.50
2017,08,22,01,59,18.60
2017,08,22,02,00,18.60
2017,08,22,02,01,18.60
2017,08,22,02,02,18.60
2017,08,22,02,03,18.60
2017,08,22,02,04,18.70
2017,08,22,02,05,18.70
2017,08,22,02,06,18.70
2017,08,22,02,07,18.70
2017,08,22,02,08,18.70
2017,08,22,02,09,18.70
2017,08,22,02,10,18.70
2017,08,22,02,11,18.70
2017,08,22,02,12,18.60
2017,08,22,02,13,18.60
2017,08,22,02,14,18.60
2017,08,22,02,15,18.50
2017,08,22,02,16,18.50
2017,08,22,02,17,18.40
2017,08,22,02,18,18.40
2017,08,22,02,19,18.40
2017,08,22,02,20,18.30
2017,08,22,02,21,18.30
2017,08,22,02,22,18.30
2017,08,22,02,23,18.20
2017,08,22,02,24,18.20
2017,08,22,02,25,18.20
2017,08,22,02,26,18.10
2017,08,22,02,27,18.10
2017,08,22,02,28,18.10
2017,08,22,02,29,18.10
2017,08,22,02,30,18.00
2017,08,22,02,31,18.00
2017,08,22,02,32,18.00
2017,08,22,02,33,17.90
2017,08,22,02,34,17.90
2017,08,22,02,35,17.90
2017,08,22,02,36,17.90
2017,08,22,02,37,17.90
2017,08,22,02,38,17.80
2017,08,22,02,39,17.80
2017,08,22,02,40,17.80
2017,08,22,02,41,17.80
2017,08,22,02,42,17.80
2017,08,22,02,43,17.70
2017,08,22,02,44,17.70
2017,08,22,02,45,17.70
2017,08,22,02,46,17.70
2017,08,22,02,47,17.70
2017,08,22,02,48,17.60
2017,08,22,02,49,17.60
2017,08,22,02,50,17.60
2017,08,22,02,51,17.60
2017,08,22,02,52,17.50
2017,08,22,02,53,17.50
2017,08,22,02,54,17.40
2017,08,22,02,55,17.40
2017,08,22,02,56,17.40
2017,08,22,02,57,17.30
2017,08,22,02,58,17.30
2017,08,22,02,59,17.30
2017,08,22,03,00,17.30
2017,08,22,03,01,17.30
2017,08,22,03,02,17.30
2017,08,22,03,03,17.20
2017,08,22,03,04,17.20
2017,08,22,03,05,17.20
2017,08,22,03,06,17.20
2017,08,22,03,07,17.20
2017,08,22,03,08,17.20
2017,08,22,03,09,17.20
2017,08,22,03,10,17.20
2017,08,22,03,11,17.20
2017,08,22,03,12,17.20
2017,08,22,03,13,17.10
2017,08,22,03,14,17.10
2017,08,22,03,15,17.10
2017,08,22,03,16,17.10
2017,08,22,03,17,17.10
2017,08,22,03,18,17.10
2017,08,22,03,19,17.10
2017,08,22,03,20,17.20
2017,08,22,03,21,17.20
2017,08,22,03,22,17.10
2017,08,22,03,23,17.10
2017,08,22,03,24,17.10
2017,08,22,03,25,17.10
2017,08,22,03,26,17.10
2017,08,22,03,27,17.10
2017,08,22,03,28,17.10
2017,08,22,03,29,17.10
2017,08,22,03,30,17.10
2017,08,22,03,31,17.10
2017,08,22,03,32,17.10
2017,08,22,03,33,17.10
2017,08,22,03,34,17.10
2017,08,22,03,35,17.00
2017,08,22,03,36,17.00
2017,08,22,03,37,16.90
2017,08,22,03,38,16.90
2017,08,22,03,39,16.90
2017,08,22,03,40,16.90
2017,08,22,03,41,16.90
2017,08,22,03,42,16.90
2017,08,22,03,43,16.90
2017,08,22,03,44,16.90
2017,08,22,03,45,16.90
2017,08,22,03,46,16.90
2017,08,22,03,47,16.90
2017,08,22,03,48,16.90
2017,08,22,03,49,16.90
2017,08,22,03,50,16.90
2017,08,22,03,51,16.80
2017,08,22,03,52,16.80
2017,08,22,03,53,16.80
2017,08,22,03,54,16.80
2017,08,22,03,55,16.80
2017,08,22,03,56,16.70
2017,08,22,03,57,16.70
2017,08,22,03,58,16.70
2017,08,22,03,59,16.70
2017,08,22,04,00,16.60
2017,08,22,04,01,16.60
2017,08,22,04,02,16.60
2017,08,22,04,03,16.60
2017,08,22,04,04,16.50
2017,08,22,04,05,16.50
2017,08,22,04,06,16.50
2017,08,22,04,07,16.40
2017,08,22,04,08,16.40
2017,08,22,04,09,16.40
2017,08,22,04,10,16.40
2017,08,22,04,11,16.40
2017,08,22,04,12,16.40
2017,08,22,04,13,16.40
2017,08,22,04,14,16.50
2017,08,22,04,15,16.50
2017,08,22,04,16,16.60
2017,08,22,04,17,16.60
2017,08,22,04,18,16.70
2017,08,22,04,19,16.70
2017,08,22,04,20,16.70
2017,08,22,04,21,16.80
2017,08,22,04,22,16.80
2017,08,22,04,23,16.80
2017,08,22,04,24,16.80
2017,08,22,04,25,16.90
2017,08,22,04,26,16.90
2017,08,22,04,27,16.90
2017,08,22,04,28,16.90
2017,08,22,04,29,17.00
2017,08,22,04,30,17.00
2017,08,22,04,31,17.00
2017,08,22,04,32,17.00
2017,08,22,04,33,17.00
2017,08,22,04,34,17.00
2017,08,22,04,35,17.00
2017,08,22,04,36,17.10
2017,08,22,04,37,17.10
2017,08,22,04,38,17.10
2017,08,22,04,39,17.10
2017,08,22,04,40,17.10
2017,08,22,04,41,17.00
2017,08,22,04,42,17.00
2017,08,22,04,43,17.00
2017,08,22,04,44,17.00
2017,08,22,04,45,17.00
2017,08,22,04,46,17.00
2017,08,22,04,47,17.00
2017,08,22,04,48,17.00
2017,08,22,04,49,17.00
2017,08,22,04,50,17.00
2017,08,22,04,51,17.00
2017,08,22,04,52,17.00
2017,08,22,04,53,17.00
2017,08,22,04,54,16.90
2017,08,22,04,55,16.90
2017,08,22,04,56,16.90
2017,08,22,04,57,16.80
2017,08,22,04,58,16.80
2017,08,22,04,59,16.70
2017,08,22,05,00,16.70
2017,08,22,05,01,16.70
2017,08,22,05,02,16.70
2017,08,22,05,03,16.70
2017,08,22,05,04,16.70
2017,08,22,05,05,16.70
2017,08,22,05,06,16.70
2017,08,22,05,07,16.70
2017,08,22,05,08,16.70
2017,08,22,05,09,16.70
2017,08,22,05,10,16.70
2017,08,22,05,11,16.70
2017,08,22,05,12,16.80
2017,08,22,05,13,16.80
2017,08,22,05,14,16.80
2017,08,22,05,15,16.80
2017,08,22,05,16,16.80
2017,08,22,05,17,16.80
2017,08,22,05,18,16.80
2017,08,22,05,19,16.80
2017,08,22,05,20,16.80
2017,08,22,05,21,16.80
2017,08,22,05,22,16.80
2017,08,22,05,23,16.70
2017,08,22,05,24,16.70
2017,08,22,05,25,16.70
2017,08,22,05,26,16.70
2017,08,22,05,27,16.60
2017,08,22,05,28,16.50
2017,08,22,05,29,16.50
2017,08,22,05,30,16.40
2017,08,22,05,31,16.30
2017,08,22,05,32,16.30
2017,08,22,05,33,16.30
2017,08,22,05,34,16.30
2017,08,22,05,35,16.30
2017,08,22,05,36,16.20
2017,08,22,05,37,16.20
2017,08,22,05,38,16.20
2017,08,22,05,39,16.20
2017,08,22,05,40,16.10
2017,08,22,05,41,16.10
2017,08,22,05,42,16.00
2017,08,22,05,43,16.00
2017,08,22,05,44,15.90
2017,08,22,05,45,15.90
2017,08,22,05,46,15.90
2017,08,22,05,47,15.80
2017,08,22,05,48,15.80
2017,08,22,05,49,15.80
2017,08,22,05,50,15.80
2017,08,22,05,51,15.80
2017,08,22,05,52,15.80
2017,08,22,05,53,15.80
2017,08,22,05,54,15.80
2017,08,22,05,55,15.80
2017,08,22,05,56,15.80
2017,08,22,05,57,15.80
2017,08,22,05,58,15.80
2017,08,22,05,59,15.80
2017,08,22,06,00,15.80
2017,08,22,06,01,15.70
2017,08,22,06,02,15.70
2017,08,22,06,03,15.70
2017,08,22,06,04,15.70
2017,08,22,06,05,15.70
2017,08,22,06,06,15.60
2017,08,22,06,07,15.60
2017,08,22,06,08,15.60
2017,08,22,06,09,15.60
2017,08,22,06,10,15.50
2017,08,22,06,11,15.50
2017,08,22,06,12,15.50
2017,08,22,06,13,15.40
2017,08,22,06,14,15.40
2017,08,22,06,15,15.40
2017,08,22,06,16,15.40
2017,08,22,06,17,15.40
2017,08,22,06,18,15.30
2017,08,22,06,19,15.30
2017,08,22,06,20,15.30
2017,08,22,06,21,15.30
2017,08,22,06,22,15.30
2017,08,22,06,23,15.30
2017,08,22,06,24,15.20
2017,08,22,06,25,15.20
2017,08,22,06,26,15.20
2017,08,22,06,27,15.20
2017,08,22,06,28,15.20
2017,08,22,06,29,15.20
2017,08,22,06,30,15.20
2017,08,22,06,31,15.20
2017,08,22,06,32,15.10
2017,08,22,06,33,15.10
2017,08,22,06,34,15.10
2017,08,22,06,35,15.10
2017,08,22,06,36,15.10
2017,08,22,06,37,15.10
2017,08,22,06,38,15.10
2017,08,22,06,39,15.00
2017,08,22,06,40,15.00
2017,08,22,06,41,15.00
2017,08,22,06,42,15.00
2017,08,22,06,43,14.90
2017,08,22,06,44,14.90
2017,08,22,06,45,14.90
2017,08,22,06,46,14.90
2017,08,22,06,47,14.90
2017,08,22,06,48,14.90
2017,08,22,06,49,14.90
2017,08,22,06,50,14.90
2017,08,22,06,51,14.90
2017,08,22,06,52,14.90
2017,08,22,06,53,14.90
2017,08,22,06,54,14.90
2017,08,22,06,55,14.90
2017,08,22,06,56,14.90
2017,08,22,06,57,14.90
2017,08,22,06,58,14.90
2017,08,22,06,59,14.90
2017,08,22,07,00,14.90
2017,08,22,07,01,14.90
2017,08,22,07,02,14.90
2017,08,22,07,03,14.90
2017,08,22,07,04,14.90
2017,08,22,07,05,14.90
2017,08,22,07,06,14.90
2017,08,22,07,07,14.90
2017,08,22,07,08,14.90
2017,08,22,07,09,14.90
2017,08,22,07,10,14.90
2017,08,22,07,11,14.90
2017,08,22,07,12,14.90
2017,08,22,07,13,14.90
2017,08,22,07,14,14.90
2017,08,22,07,15,14.90
2017,08,22,07,16,14.90
2017,08,22,07,17,14.90
2017,08,22,07,18,14.90
2017,08,22,07,19,14.90
2017,08,22,07,20,14.90
2017,08,22,07,21,15.00
2017,08,22,07,22,15.00
2017,08,22,07,23,15.10
2017,08,22,07,24,15.10
2017,08,22,07,25,15.20
2017,08,22,07,26,15.30
2017,08,22,07,27,15.30
2017,08,22,07,28,15.40
2017,08,22,07,29,15.40
2017,08,22,07,30,15.50
2017,08,22,07,31,15.60
2017,08,22,07,32,15.60
2017,08,22,07,33,15.70
2017,08,22,07,34,15.80
2017,08,22,07,35,15.90
2017,08,22,07,36,15.90
2017,08,22,07,37,16.00
2017,08,22,07,38,16.10
2017,08,22,07,39,16.20
2017,08,22,07,40,16.30
2017,08,22,07,41,16.30
2017,08,22,07,42,16.40
2017,08,22,07,43,16.40
2017,08,22,07,44,16.40
2017,08,22,07,45,16.50
2017,08,22,07,46,16.60
2017,08,22,07,47,16.60
2017,08,22,07,48,16.60
2017,08,22,07,49,16.60
2017,08,22,07,50,16.70
2017,08,22,07,51,16.70
2017,08,22,07,52,16.70
2017,08,22,07,53,16.70
2017,08,22,07,54,16.70
2017,08,22,07,55,16.80
2017,08,22,07,56,16.80
2017,08,22,07,57,16.80
2017,08,22,07,58,16.80
2017,08,22,07,59,16.80
2017,08,22,08,00,16.80
2017,08,22,08,01,16.80
2017,08,22,08,02,16.90
2017,08,22,08,03,17.00
2017,08,22,08,04,17.00
2017,08,22,08,05,17.10
2017,08,22,08,06,17.20
2017,08,22,08,07,17.20
2017,08,22,08,08,17.30
2017,08,22,08,09,17.40
2017,08,22,08,10,17.50
2017,08,22,08,11,17.50
2017,08,22,08,12,17.60
2017,08,22,08,13,17.70
2017,08,22,08,14,17.70
2017,08,22,08,15,17.80
2017,08,22,08,16,17.80
2017,08,22,08,17,17.90
2017,08,22,08,18,17.90
2017,08,22,08,19,18.00
2017,08,22,08,20,18.10
2017,08,22,08,21,18.10
2017,08,22,08,22,18.10
2017,08,22,08,23,18.10
2017,08,22,08,24,18.20
2017,08,22,08,25,18.20
2017,08,22,08,26,18.20
2017,08,22,08,27,18.30
2017,08,22,08,28,18.30
2017,08,22,08,29,18.40
2017,08,22,08,30,18.50
2017,08,22,08,31,18.50
2017,08,22,08,32,18.60
2017,08,22,08,33,18.70
2017,08,22,08,34,18.80
2017,08,22,08,35,18.80
2017,08,22,08,36,18.90
2017,08,22,08,37,19.00
2017,08,22,08,38,19.00
2017,08,22,08,39,19.10
2017,08,22,08,40,19.10
2017,08,22,08,41,19.20
2017,08,22,08,42,19.20
2017,08,22,08,43,19.20
2017,08,22,08,44,19.20
2017,08,22,08,45,19.20
2017,08,22,08,46,19.20
2017,08,22,08,47,19.20
2017,08,22,08,48,19.20
2017,08,22,08,49,19.20
2017,08,22,08,50,19.20
2017,08,22,08,51,19.20
2017,08,22,08,52,19.20
2017,08,22,08,53,19.20
2017,08,22,08,54,19.20
2017,08,22,08,55,19.20
2017,08,22,08,56,19.20
2017,08,22,08,57,19.20
2017,08,22,08,58,19.30
2017,08,22,08,59,19.30
2017,08,22,09,00,19.30
2017,08,22,09,01,19.40
2017,08,22,09,02,19.40
2017,08,22,09,03,19.40
2017,08,22,09,04,19.40
2017,08,22,09,05,19.50
2017,08,22,09,06,19.50
2017,08,22,09,07,19.60
2017,08,22,09,08,19.60
2017,08,22,09,09,19.60
2017,08,22,09,10,19.60
2017,08,22,09,11,19.60
2017,08,22,09,12,19.60
2017,08,22,09,13,19.70
2017,08,22,09,14,19.70
2017,08,22,09,15,19.70
2017,08,22,09,16,19.70
2017,08,22,09,17,19.80
2017,08,22,09,18,19.80
2017,08,22,09,19,19.80
2017,08,22,09,20,19.90
2017,08,22,09,21,19.90
2017,08,22,09,22,19.90
2017,08,22,09,23,20.00
2017,08,22,09,24,20.00
2017,08,22,09,25,20.00
2017,08,22,09,26,20.10
2017,08,22,09,27,20.10
2017,08,22,09,28,20.10
2017,08,22,09,29,20.20
2017,08,22,09,30,20.20
2017,08,22,09,31,20.30
2017,08,22,09,32,20.30
2017,08,22,09,33,20.40
2017,08,22,09,34,20.40
2017,08,22,09,35,20.50
2017,08,22,09,36,20.50
2017,08,22,09,37,20.60
2017,08,22,09,38,20.60
2017,08,22,09,39,20.70
2017,08,22,09,40,20.70
2017,08,22,09,41,20.80
2017,08,22,09,42,20.90
2017,08,22,09,43,20.90
2017,08,22,09,44,20.90
2017,08,22,09,45,20.90
2017,08,22,09,46,20.90
2017,08,22,09,47,20.90
2017,08,22,09,48,20.90
2017,08,22,09,49,20.90
2017,08,22,09,50,20.80
2017,08,22,09,51,20.80
2017,08,22,09,52,20.80
2017,08,22,09,53,20.80
2017,08,22,09,54,20.80
2017,08,22,09,55,20.80
2017,08,22,09,56,20.80
2017,08,22,09,57,20.90
2017,08,22,09,58,20.90
2017,08,22,09,59,21.00
2017,08,22,10,00,21.00
2017,08,22,10,01,21.10
2017,08,22,10,02,21.20
2017,08,22,10,03,21.30
2017,08,22,10,04,21.40
2017,08,22,10,05,21.50
2017,08,22,10,06,21.50
2017,08,22,10,07,21.60
2017,08,22,10,08,21.60
2017,08,22,10,09,21.70
2017,08,22,10,10,21.70
2017,08,22,10,11,21.70
2017,08,22,10,12,21.70
2017,08,22,10,13,21.70
2017,08,22,10,14,21.70
2017,08,22,10,15,21.70
2017,08,22,10,16,21.70
2017,08,22,10,17,21.80
2017,08,22,10,18,21.80
2017,08,22,10,19,21.90
2017,08,22,10,20,22.00
2017,08,22,10,21,22.10
2017,08,22,10,22,22.20
2017,08,22,10,23,22.20
2017,08,22,10,24,22.30
2017,08,22,10,25,22.30
2017,08,22,10,26,22.30
2017,08,22,10,27,22.40
2017,08,22,10,28,22.40
2017,08,22,10,29,22.50
2017,08,22,10,30,22.50
2017,08,22,10,31,22.60
2017,08,22,10,32,22.60
2017,08,22,10,33,22.60
2017,08,22,10,34,22.60
2017,08,22,10,35,22.60
2017,08,22,10,36,22.70
2017,08,22,10,37,22.80
2017,08,22,10,38,22.80
2017,08,22,10,39,22.90
2017,08,22,10,40,22.90
2017,08,22,10,41,22.90
2017,08,22,10,42,22.90
2017,08,22,10,43,23.00
2017,08,22,10,44,23.00
2017,08,22,10,45,23.10
2017,08,22,10,46,23.20
2017,08,22,10,47,23.30
2017,08,22,10,48,23.30
2017,08,22,10,49,23.30
2017,08,22,10,50,23.30
2017,08,22,10,51,23.30
2017,08,22,10,52,23.30
2017,08,22,10,53,23.20
2017,08,22,10,54,23.20
2017,08,22,10,55,23.20
2017,08,22,10,56,23.20
2017,08,22,10,57,23.20
2017,08,22,10,58,23.20
2017,08,22,10,59,23.10
2017,08,22,11,00,23.10
2017,08,22,11,01,23.20
2017,08,22,11,02,23.20
2017,08,22,11,03,23.20
2017,08,22,11,04,23.20
2017,08,22,11,05,23.20
2017,08,22,11,06,23.20
2017,08,22,11,07,23.20
2017,08,22,11,08,23.20
2017,08,22,11,09,23.30
2017,08,22,11,10,23.40
2017,08,22,11,11,23.50
2017,08,22,11,12,23.50
2017,08,22,11,13,23.60
2017,08,22,11,14,23.60
2017,08,22,11,15,23.60
2017,08,22,11,16,23.60
2017,08,22,11,17,23.60
2017,08,22,11,18,23.50
2017,08,22,11,19,23.60
2017,08,22,11,20,23.60
2017,08,22,11,21,23.70
2017,08,22,11,22,23.80
2017,08,22,11,23,23.90
2017,08,22,11,24,23.90
2017,08,22,11,25,23.90
2017,08,22,11,26,23.90
2017,08,22,11,27,23.80
2017,08,22,11,28,23.80
2017,08,22,11,29,23.90
2017,08,22,11,30,24.00
2017,08,22,11,31,24.00
2017,08,22,11,32,24.00
2017,08,22,11,33,24.00
2017,08,22,11,34,24.00
2017,08,22,11,35,24.10
2017,08,22,11,36,24.20
2017,08,22,11,37,24.30
2017,08,22,11,38,24.30
2017,08,22,11,39,24.30
2017,08,22,11,40,24.30
2017,08,22,11,41,24.30
2017,08,22,11,42,24.30
2017,08,22,11,43,24.30
2017,08,22,11,44,24.30
2017,08,22,11,45,24.40
2017,08,22,11,46,24.50
2017,08,22,11,47,24.60
2017,08,22,11,48,24.60
2017,08,22,11,49,24.70
2017,08,22,11,50,24.70
2017,08,22,11,51,24.70
2017,08,22,11,52,24.80
2017,08,22,11,53,24.80
2017,08,22,11,54,24.80
2017,08,22,11,55,24.80
2017,08,22,11,56,24.70
2017,08,22,11,57,24.60
2017,08,22,11,58,24.60
2017,08,22,11,59,24.50
2017,08,22,12,00,24.40
2017,08,22,12,01,24.40
2017,08,22,12,02,24.40
2017,08,22,12,03,24.40
2017,08,22,12,04,24.50
2017,08,22,12,05,24.60
2017,08,22,12,06,24.60
2017,08,22,12,07,24.70
2017,08,22,12,08,24.80
2017,08,22,12,09,24.80
2017,08,22,12,10,24.80
2017,08,22,12,11,24.80
2017,08,22,12,12,24.80
2017,08,22,12,13,24.90
2017,08,22,12,14,24.90
2017,08,22,12,15,24.90
2017,08,22,12,16,24.90
2017,08,22,12,17,24.90
2017,08,22,12,18,24.90
2017,08,22,12,19,24.90
2017,08,22,12,20,24.90
2017,08,22,12,21,24.90
2017,08,22,12,22,24.90
2017,08,22,12,23,25.00
2017,08,22,12,24,25.00
2017,08,22,12,25,25.00
2017,08,22,12,26,24.90
2017,08,22,12,27,24.90
2017,08,22,12,28,24.90
2017,08,22,12,29,24.90
2017,08,22,12,30,24.90
2017,08,22,12,31,24.90
2017,08,22,12,32,24.90
2017,08,22,12,33,24.90
2017,08,22,12,34,25.00
2017,08,22,12,35,25.00
2017,08,22,12,36,25.00
2017,08,22,12,37,25.00
2017,08,22,12,38,25.00
2017,08,22,12,39,25.00
2017,08,22,12,40,25.10
2017,08,22,12,41,25.10
2017,08,22,12,42,25.10
2017,08,22,12,43,25.20
2017,08,22,12,44,25.20
2017,08,22,12,45,25.20
2017,08,22,12,46,25.10
2017,08,22,12,47,25.10
2017,08,22,12,48,25.10
2017,08,22,12,49,25.00
2017,08,22,12,50,25.00
2017,08,22,12,51,25.00
2017,08,22,12,52,25.00
2017,08,22,12,53,25.00
2017,08,22,12,54,25.00
2017,08,22,12,55,24.90
2017,08,22,12,56,24.90
2017,08,22,12,57,24.80
2017,08,22,12,58,24.80
2017,08,22,12,59,24.80
2017,08,22,13,00,24.80
2017,08,22,13,01,24.80
2017,08,22,13,02,24.90
2017,08,22,13,03,24.90
2017,08,22,13,04,24.90
2017,08,22,13,05,24.90
2017,08,22,13,06,24.90
2017,08,22,13,07,24.90
2017,08,22,13,08,24.90
2017,08,22,13,09,24.90
2017,08,22,13,10,24.90
2017,08,22,13,11,24.90
2017,08,22,13,12,25.00
2017,08,22,13,13,25.00
2017,08,22,13,14,25.00
2017,08,22,13,15,25.10
2017,08,22,13,16,25.10
2017,08,22,13,17,25.10
2017,08,22,13,18,25.20
2017,08,22,13,19,25.20
2017,08,22,13,20,25.20
2017,08,22,13,21,25.10
2017,08,22,13,22,25.10
2017,08,22,13,23,25.00
2017,08,22,13,24,25.00
2017,08,22,13,25,24.90
2017,08,22,13,26,24.90
2017,08,22,13,27,24.90
2017,08,22,13,28,24.90
2017,08,22,13,29,24.90
2017,08,22,13,30,24.90
2017,08,22,13,31,24.90
2017,08,22,13,32,24.90
2017,08,22,13,33,24.90
2017,08,22,13,34,25.00
2017,08,22,13,35,25.00
2017,08,22,13,36,25.00
2017,08,22,13,37,25.00
2017,08,22,13,38,25.10
2017,08,22,13,39,25.10
2017,08,22,13,40,25.20
2017,08,22,13,41,25.20
2017,08,22,13,42,25.20
2017,08,22,13,43,25.20
2017,08,22,13,44,25.20
2017,08,22,13,45,25.20
2017,08,22,13,46,25.20
2017,08,22,13,47,25.10
2017,08,22,13,48,25.10
2017,08,22,13,49,25.10
2017,08,22,13,50,25.10
2017,08,22,13,51,25.10
2017,08,22,13,52,25.10
2017,08,22,13,53,25.10
2017,08,22,13,54,25.10
2017,08,22,13,55,25.10
2017,08,22,13,56,25.00
2017,08,22,13,57,25.00
2017,08,22,13,58,24.90
2017,08,22,13,59,24.90
2017,08,22,14,00,24.90
2017,08,22,14,01,24.90
2017,08,22,14,02,24.80
2017,08,22,14,03,24.80
2017,08,22,14,04,24.80
2017,08,22,14,05,24.80
2017,08,22,14,06,24.80
2017,08,22,14,07,24.90
2017,08,22,14,08,24.90
2017,08,22,14,09,24.90
2017,08,22,14,10,25.00
2017,08,22,14,11,25.10
2017,08,22,14,12,25.20
2017,08,22,14,13,25.30
2017,08,22,14,14,25.30
2017,08,22,14,15,25.40
2017,08,22,14,16,25.40
2017,08,22,14,17,25.50
2017,08,22,14,18,25.50
2017,08,22,14,19,25.60
2017,08,22,14,20,25.60
2017,08,22,14,21,25.70
2017,08,22,14,22,25.70
2017,08,22,14,23,25.70
2017,08,22,14,24,25.70
2017,08,22,14,25,25.70
2017,08,22,14,26,25.70
2017,08,22,14,27,25.60
2017,08,22,14,28,25.60
2017,08,22,14,29,25.60
2017,08,22,14,30,25.60
2017,08,22,14,31,25.60
2017,08,22,14,32,25.70
2017,08,22,14,33,25.70
2017,08,22,14,34,25.70
2017,08,22,14,35,25.70
2017,08,22,14,36,25.70
2017,08,22,14,37,25.70
2017,08,22,14,38,25.70
2017,08,22,14,39,25.70
2017,08,22,14,40,25.70
2017,08,22,14,41,25.70
2017,08,22,14,42,25.70
2017,08,22,14,43,25.80
2017,08,22,14,44,25.80
2017,08,22,14,45,25.80
2017,08,22,14,46,25.80
2017,08,22,14,47,25.80
2017,08,22,14,48,25.80
2017,08,22,14,49,25.80
2017,08,22,14,50,25.80
2017,08,22,14,51,25.80
2017,08,22,14,52,25.80
2017,08,22,14,53,25.90
2017,08,22,14,54,25.90
2017,08,22,14,55,25.90
2017,08,22,14,56,26.00
2017,08,22,14,57,26.00
2017,08,22,14,58,26.10
2017,08,22,14,59,26.20
2017,08,22,15,00,26.20
2017,08,22,15,01,26.20
2017,08,22,15,02,26.30
2017,08,22,15,03,26.40
2017,08,22,15,04,26.40
2017,08,22,15,05,26.40
2017,08,22,15,06,26.40
2017,08,22,15,07,26.40
2017,08,22,15,08,26.40
2017,08,22,15,09,26.30
2017,08,22,15,10,26.30
2017,08,22,15,11,26.40
2017,08,22,15,12,26.40
2017,08,22,15,13,26.40
2017,08,22,15,14,26.40
2017,08,22,15,15,26.40
2017,08,22,15,16,26.40
2017,08,22,15,17,26.40
2017,08,22,15,18,26.40
2017,08,22,15,19,26.40
2017,08,22,15,20,26.30
2017,08,22,15,21,26.30
2017,08,22,15,22,26.30
2017,08,22,15,23,26.20
2017,08,22,15,24,26.20
2017,08,22,15,25,26.10
2017,08,22,15,26,26.00
2017,08,22,15,27,25.90
2017,08,22,15,28,25.80
2017,08,22,15,29,25.80
2017,08,22,15,30,25.70
2017,08,22,15,31,25.70
2017,08,22,15,32,25.60
2017,08,22,15,33,25.60
2017,08,22,15,34,25.50
2017,08,22,15,35,25.50
2017,08,22,15,36,25.40
2017,08,22,15,37,25.40
2017,08,22,15,38,25.40
2017,08,22,15,39,25.40
2017,08,22,15,40,25.40
2017,08,22,15,41,25.40
2017,08,22,15,42,25.40
2017,08,22,15,43,25.40
2017,08,22,15,44,25.40
2017,08,22,15,45,25.40
2017,08,22,15,46,25.40
2017,08,22,15,47,25.40
2017,08,22,15,48,25.40
2017,08,22,15,49,25.40
2017,08,22,15,50,25.40
2017,08,22,15,51,25.40
2017,08,22,15,52,25.30
2017,08,22,15,53,25.30
2017,08,22,15,54,25.30
2017,08,22,15,55,25.30
2017,08,22,15,56,25.20
2017,08,22,15,57,25.20
2017,08,22,15,58,25.20
2017,08,22,15,59,25.20
2017,08,22,16,00,25.20
2017,08,22,16,01,25.20
2017,08,22,16,02,25.20
2017,08,22,16,03,25.20
2017,08,22,16,04,25.30
2017,08,22,16,05,25.30
2017,08,22,16,06,25.30
2017,08,22,16,07,25.40
2017,08,22,16,08,25.40
2017,08,22,16,09,25.50
2017,08,22,16,10,25.50
2017,08,22,16,11,25.50
2017,08,22,16,12,25.40
2017,08,22,16,13,25.30
2017,08,22,16,14,25.10
2017,08,22,16,15,25.00
2017,08,22,16,16,24.80
2017,08,22,16,17,24.70
2017,08,22,16,18,24.60
2017,08,22,16,19,24.50
2017,08,22,16,20,24.40
2017,08,22,16,21,24.30
2017,08,22,16,22,24.20
2017,08,22,16,23,24.20
2017,08,22,16,24,24.10
2017,08,22,16,25,24.10
2017,08,22,16,26,24.10
2017,08,22,16,27,24.10
2017,08,22,16,28,24.10
2017,08,22,16,29,24.10
2017,08,22,16,30,24.10
2017,08,22,16,31,24.10
2017,08,22,16,32,24.10
2017,08,22,16,33,24.10
2017,08,22,16,34,24.10
2017,08,22,16,35,24.10
2017,08,22,16,36,24.10
2017,08,22,16,37,24.10
2017,08,22,16,38,24.10
2017,08,22,16,39,24.00
2017,08,22,16,40,24.00
2017,08,22,16,41,23.90
2017,08,22,16,42,23.90
2017,08,22,16,43,23.90
2017,08,22,16,44,23.80
2017,08,22,16,45,23.80
2017,08,22,16,46,23.80
2017,08,22,16,47,23.70
2017,08,22,16,48,23.60
2017,08,22,16,49,23.50
2017,08,22,16,50,23.40
2017,08,22,16,51,23.30
2017,08,22,16,52,23.20
2017,08,22,16,53,23.10
2017,08,22,16,54,23.00
2017,08,22,16,55,23.00
2017,08,22,16,56,23.00
2017,08,22,16,57,22.90
2017,08,22,16,58,22.90
2017,08,22,16,59,22.90
2017,08,22,17,00,22.90
2017,08,22,17,01,22.90
2017,08,22,17,02,22.90
2017,08,22,17,03,22.90
2017,08,22,17,04,22.90
2017,08,22,17,05,22.80
2017,08,22,17,06,22.80
2017,08,22,17,07,22.80
2017,08,22,17,08,22.80
2017,08,22,17,09,22.70
2017,08,22,17,10,22.70
2017,08,22,17,11,22.70
2017,08,22,17,12,22.60
2017,08,22,17,13,22.60
2017,08,22,17,14,22.50
2017,08,22,17,15,22.50
2017,08,22,17,16,22.50
2017,08,22,17,17,22.40
2017,08,22,17,18,22.30
2017,08,22,17,19,22.30